Alamosa, CO

8:52 AM MDT on August 23, 2017 (GMT -0600)
San Luis Valley Regional / Bergman Field

Weather History for KALS - October, 2010

Change the Weather History Date:

Friday, October 15, 2010

  Actual Average Record
Temperature  
Mean Temperature 47 °F 44 °F  
Max Temperature 71 °F 62 °F 78 °F (2016)
Min Temperature 22 °F 25 °F 11 °F (1952)
Degree Days  
Heating Degree Days 18 21  
Month to date heating degree days 229 281  
Since 1 July heating degree days 489 712  
Cooling Degree Days 0 0  
Month to date cooling degree days 0 0  
Year to date cooling degree days 128 51  
Moisture  
Dew Point 21 °F    
Average Humidity 49    
Maximum Humidity 84    
Minimum Humidity 14    
Precipitation  
Precipitation 0.00 in 0.03 in 0.50 in (1970)
Month to date precipitation 0.07 0.33  
Year to date precipitation 4.97 6.19  
Snow  
Snow 0.00 in 0.10 in 7.60 in (1970)
Month to date snowfall 0.0 0.5  
Since 1 July snowfall 0.0 0.5  
Since 1 September snowfall 0.0 0.5  
Snow Depth 0.00 in    
Sea Level Pressure  
Sea Level Pressure 30.22 in    
Wind  
Wind Speed 3 mph (South)    
Max Wind Speed 9 mph    
Max Gust Speed 17 mph    
Visibility 10 miles    
Events      
T = Trace of Precipitation, MM = Missing Value Source: NWS Daily Summary

Daily Weather History Graph

Daily Weather History Graph

Search for Another Location

Airport or City:

Trip Planner

Search our weather history database for the weather conditions in past years. The results will help you decide how hot, cold, wet, or windy it might be!

Date:

Astronomy

Oct. 15, 2010 Rise Set
Actual Time 7:11 AM MDT 6:26 PM MDT
Civil Twilight 6:45 AM MDT 6:52 PM MDT
Nautical Twilight 6:14 AM MDT 7:22 PM MDT
Astronomical Twilight 5:44 AM MDT 7:53 PM MDT
Moon 2:41 PM MDT (10/15) 12:16 AM MDT (10/15)
Length of Visible Light 12h 07m
Length of Day
11h 14m
First Quarter, 58% of the Moon is Illuminated
Oct 15
First Quarter
Oct 22
Full
Oct 30
Last Quarter
Nov 5
New
Nov 13
First Quarter

Hourly Weather History & Observations

Time (MDT) Temp. Windchill Dew Point Humidity Pressure Visibility Wind Dir Wind Speed Gust Speed Precip Events Conditions
12:52 AM 33.1 °F - 19.0 °F 56% 30.26 in 10.0 mi Calm Calm - N/A   Clear
1:52 AM 30.9 °F 26.2 °F 17.1 °F 57% 30.27 in 10.0 mi SW 4.6 mph - N/A   Clear
2:52 AM 28.9 °F 23.9 °F 17.1 °F 61% 30.25 in 10.0 mi West 4.6 mph - N/A   Clear
3:52 AM 28.0 °F 22.8 °F 21.0 °F 75% 30.26 in 10.0 mi WNW 4.6 mph - N/A   Clear
4:52 AM 24.1 °F 17.0 °F 18.0 °F 77% 30.28 in 10.0 mi East 5.8 mph - N/A   Clear
5:52 AM 21.9 °F 15.7 °F 17.1 °F 82% 30.30 in 10.0 mi South 4.6 mph - N/A   Clear
6:52 AM 26.1 °F - 19.9 °F 78% 30.33 in 10.0 mi Calm Calm - N/A   Clear
7:52 AM 28.0 °F - 19.0 °F 69% 30.37 in 10.0 mi Calm Calm - N/A   Clear
8:52 AM 41.0 °F 39.0 °F 25.0 °F 53% 30.33 in 10.0 mi WSW 3.5 mph - N/A   Clear
9:52 AM 48.9 °F - 27.0 °F 43% 30.31 in 10.0 mi Variable 3.5 mph - N/A   Clear
10:52 AM 55.9 °F - 28.0 °F 34% 30.26 in 10.0 mi North 4.6 mph - N/A   Clear
11:52 AM 60.1 °F - 27.0 °F 28% 30.22 in 10.0 mi Calm Calm - N/A   Clear
12:52 PM 64.0 °F - 24.1 °F 22% 30.18 in 10.0 mi Calm Calm - N/A   Clear
1:52 PM 69.1 °F - 24.1 °F 18% 30.13 in 10.0 mi Calm Calm - N/A   Clear
2:52 PM 70.0 °F - 23.0 °F 17% 30.10 in 10.0 mi ENE 6.9 mph - N/A   Clear
3:52 PM 71.1 °F - 19.9 °F 14% 30.08 in 10.0 mi Variable 5.8 mph - N/A   Clear
4:52 PM 68.0 °F - 19.9 °F 16% 30.11 in 10.0 mi Variable 3.5 mph - N/A   Clear
5:52 PM 64.0 °F - 21.0 °F 19% 30.14 in 10.0 mi SSW 3.5 mph - N/A   Clear
6:52 PM 55.0 °F - 21.0 °F 27% 30.17 in 10.0 mi SE 3.5 mph - N/A   Clear
7:52 PM 50.0 °F - 19.9 °F 31% 30.20 in 10.0 mi ESE 3.5 mph - N/A   Clear
8:52 PM 45.0 °F 42.6 °F 19.0 °F 36% 30.17 in 10.0 mi West 4.6 mph - N/A   Clear
9:52 PM 41.0 °F - 19.9 °F 43% 30.17 in 10.0 mi Calm Calm - N/A   Clear
10:52 PM 37.9 °F 35.5 °F 21.0 °F 51% 30.15 in 10.0 mi ESE 3.5 mph - N/A   Clear
11:52 PM 37.9 °F 35.5 °F 19.0 °F 47% 30.14 in 10.0 mi South 3.5 mph - N/A   Clear